[Iaude] MPEC V24: 2016 UB107 [a=1.37,e=0.31,i=1.0,H=25.2]

mpec at si.edu mpec at si.edu
Thu Nov 3 21:07:38 EDT 2016


M.P.E.C. 2016-V24                                Issued 2016 Nov. 4, 01:03 UT
 
     The Minor Planet Electronic Circulars contain information on unusual
         minor planets and routine data on comets.  They are published
    on behalf of Division F of the International Astronomical Union by the
          Minor Planet Center, Smithsonian Astrophysical Observatory,
                          Cambridge, MA 02138, U.S.A.

             Prepared using the Tamkin Foundation Computer Network

                              MPC at CFA.HARVARD.EDU
            URL http://www.minorplanetcenter.net/    ISSN 1523-6714


                                  2016 UB107
 
Observations:
     K16UA7B  C2016 10 17.36600 22 59 41.728-05 57 20.72         21.3 iLEV024F51
     K16UA7B  C2016 10 17.37800 22 59 39.091-05 57 22.37         21.1 iLEV024F51
     K16UA7B  C2016 10 17.39006 22 59 36.489-05 57 23.96         21.2 iLEV024F51
     K16UA7B  C2016 10 17.40205 22 59 33.901-05 57 25.98         21.5 iLEV024F51
     K16UA7B* C2016 10 30.24139 22 04 45.745-05 46 04.65         21.1 wLEV024F51
     K16UA7B  C2016 10 30.25082 22 04 41.392-05 46 01.15         20.9 wLEV024F51
     K16UA7B  C2016 10 30.26035 22 04 36.947-05 45 57.60         21.2 wLEV024F51
     K16UA7B  C2016 10 30.27007 22 04 32.459-05 45 53.81         21.0 wLEV024F51
     K16UA7B KC2016 11 01.85355121 45 23.90 -05 21 32.7          19.7 RtEV024K92
     K16UA7B KC2016 11 01.85922821 45 20.73 -05 21 28.5          19.8 RtEV024K92
     K16UA7B KC2016 11 01.86492621 45 17.56 -05 21 24.5          19.6 RtEV024K92
     K16UA7B KC2016 11 02.01752721 44 10.50 -05 24 02.7          20.3 VuEV024H21
     K16UA7B KC2016 11 02.02843221 44 04.18 -05 23 55.9          20.7 VuEV024H21
     K16UA7B KC2016 11 02.08920 21 43 33.39 -05 22 55.3          19.9 RoEV024291
     K16UA7B KC2016 11 02.09134 21 43 32.15 -05 22 54.2          20.4 RoEV024291
     K16UA7B KC2016 11 02.09347 21 43 30.92 -05 22 53.4          19.5 RoEV024291
     K16UA7B  C2016 11 03.06755 21 34 45.27 -05 11 25.4          20.1 RoEV024926
     K16UA7B  C2016 11 03.07067 21 34 43.22 -05 11 22.9          20.2 RoEV024926
     K16UA7B  C2016 11 03.07381 21 34 41.17 -05 11 20.4          20.2 RoEV024926
     K16UA7B KC2016 11 03.08758 21 34 32.28 -05 11 12.5                oEV024291
     K16UA7B KC2016 11 03.08970 21 34 30.91 -05 11 10.0                oEV024291
     K16UA7B KC2016 11 03.37144 21 31 42.77 -05 02 38.7          20.0 RtEV024474
     K16UA7B KC2016 11 03.37384 21 31 41.12 -05 02 35.3          20.5 RtEV024474
     K16UA7B KC2016 11 03.37623 21 31 39.56 -05 02 33.7          20.1 RtEV024474
     K16UA7B KC2016 11 03.37873 21 31 37.88 -05 02 32.0          19.7 RtEV024474
 
Observer details:
291 LPL/Spacewatch II.  Observers M. T. Read, A. F. Tubbiolo.  1.8-m f/2.7
    reflector + CCD.
474 Mount John Observatory, Lake Tekapo.  Observers A. C. Gilmore,
    P. M. Kilmartin.  Measurer P. M. Kilmartin.  1.0-m f/7.7 reflector + CCD.
926 Tenagra II Observatory.  Observers M. Schwartz, P. R. Holvorcem.  Measurer
    M. Schwartz.  0.81-m f/7 Ritchey-Chretien + CCD.
F51 Pan-STARRS 1, Haleakala.  Observers B. Gibson, T. Goggia, S. Kahale,
    A. Schultz, M. Willman.  Measurers K. Chambers, S. Chastel, L. Denneau,
    H. Flewelling, M. Huber, E. Lilly, E. Magnier, R. Wainscoat, C. Waters,
    R. Weryk.  1.8-m Ritchey-Chretien + CCD.
H21 Astronomical Research Observatory, Westfield.  Observer R. Holmes.
    Measurers S. Foglia, L. Buzzi, T. Linder, R. Holmes.  0.76-m f/3.0
    astrograph + CCD.
K92 Sutherland-LCOGT B.  Observers T. Lister, S. Greenstreet, E. Gomez.
    Measurer T. Lister.  1.0-m f/8 Ritchey-Chretien + CCD.
 
Orbital elements:
2016 UB107                                               Earth MOID = 0.0067 AU
Epoch 2016 July 31.0 TT = JDT 2457600.5                 MPC
M 281.74147              (2000.0)            P               Q
n   0.61411995     Peri.   57.14829     +0.23104073     -0.97292655
a   1.3707784      Node    19.49588     +0.88670813     +0.20808776
e   0.3054567      Incl.    1.00287     +0.40046084     +0.10056550
P   1.60           H   25.2           G   0.15           U   6
Residuals in seconds of arc
161017 F51  0.1-  0.1+    161101 K92  0.5+  0.0     161103 926  0.4+  0.0
161017 F51  0.3-  0.1+    161101 K92  0.4+  0.1-    161103 291  0.2-  1.0-
161017 F51  0.0   0.1+    161102 H21  0.8-  0.1+    161103 291  0.1+  0.1-
161017 F51  0.0   0.4-    161102 H21  0.6-  0.1+    161103 474  1.9+  0.3-
161030 F51  0.1-  0.0     161102 291  1.9-  0.3+    161103 474  0.8+  1.0+
161030 F51  0.3+  0.0     161102 291  1.5-  0.1+    161103 474  0.9+  0.6+
161030 F51  0.0   0.1-    161102 291  1.1-  0.5-    161103 474  0.2+  0.1+
161030 F51  0.4+  0.1-    161103 926  0.6+  0.2-
161101 K92  0.7+  0.2-    161103 926  0.4+  0.1-

Ephemeris:
2016 UB107               a,e,i = 1.37, 0.31, 1                   q = 0.9521
Date    TT    R. A. (2000) Decl.     Delta      r     Elong.  Phase     V
2016 10 05    23 29 30.4 -05 02 00   0.1165  1.1096   159.0    18.8    21.7
...
2016 10 20    22 51 30.3 -06 02 05   0.07283 1.0485   135.1    42.1    21.3
...
2016 10 28    22 18 01.0 -05 55 51   0.05243 1.0203   119.3    58.1    20.9
...
2016 11 03    21 35 22.3 -05 10 01   0.03830 1.0016   103.5    74.4    20.7
2016 11 04    21 25 23.6 -04 56 04   0.03610 0.9988   100.2    77.8    20.7
2016 11 05    21 14 11.7 -04 39 27   0.03396 0.9960    96.6    81.4    20.7
...
2016 11 11    19 28 41.1 -01 34 02   0.02365 0.9808    66.5   112.2    21.3
...
2016 11 19    15 49 11.0 +04 34 03   0.02519 0.9653    24.2   155.2    26.7
...
2016 12 04    13 24 19.9 +05 03 11   0.06069 0.9526    55.5   121.5    24.0

A. U. Tomatic                (C) Copyright 2016 MPC           M.P.E.C. 2016-V24




More information about the Iaude mailing list